Topeka, KS

4:03 AM CST on February 13, 2016 (GMT -0600)
Billard Municipal

Weather History for KTOP - October, 2013

Change the Weather History Date:

Saturday, October 5, 2013

  Actual Average Record
Temperature  
Mean Temperature 55 °F 60 °F  
Max Temperature 62 °F 72 °F 96 °F (1963)
Min Temperature 47 °F 48 °F 31 °F (1964)
Degree Days  
Heating Degree Days 10 6  
Month to date heating degree days 10 29  
Since 1 July heating degree days 24 96  
Cooling Degree Days 0 2  
Month to date cooling degree days 32 10  
Year to date cooling degree days 1581 1403  
Growing Degree Days 4 (Base 50)    
Moisture  
Dew Point 35 °F    
Average Humidity 49    
Maximum Humidity 63    
Minimum Humidity 34    
Precipitation  
Precipitation T in 0.12 in 1.55 in (2000)
Month to date precipitation 1.04 0.60  
Year to date precipitation 28.78 30.83  
Snow  
Snow 0.00 in 0.00 in 0.00 in ()
Month to date snowfall 0.0 0.0  
Year to date snowfall 24.2 11.3  
Since 1 July snowfall 0.0 0.0  
Snow Depth 0.00 in    
Sea Level Pressure  
Sea Level Pressure 29.98 in    
Wind  
Wind Speed 10 mph (West)    
Max Wind Speed 18 mph    
Max Gust Speed 26 mph    
Visibility 10 miles    
Events Rain    
T = Trace of Precipitation, MM = Missing Value Source: NWS Daily Summary

Daily Weather History Graph

Daily Weather History Graph

Search for Another Location

Airport or City:

Trip Planner

Search our weather history database for the weather conditions in past years. The results will help you decide how hot, cold, wet, or windy it might be!

Date:

Astronomy

Oct. 05, 2013 Rise Set
Actual Time 7:22 AM CDT 6:58 PM CDT
Civil Twilight 6:55 AM CDT 7:25 PM CDT
Nautical Twilight 6:24 AM CDT 7:55 PM CDT
Astronomical Twilight 5:53 AM CDT 8:27 PM CDT
Moon 8:02 AM CDT (10/5) 7:18 PM CDT (10/5)
Length of Visible Light 12h 29m
Length of Day
11h 35m
New Moon, 1% of the Moon is Illuminated
Oct 5
New Moon
Oct 11
First Quarter
Oct 18
Full
Oct 26
Last Quarter
Nov 3
New

Hourly Weather History & Observations

Time (CDT) Temp. Dew Point Humidity Pressure Visibility Wind Dir Wind Speed Gust Speed Precip Events Conditions
12:53 AM 59.0 °F 41.0 °F 51% 29.95 in 10.0 mi WNW 8.1 mph - N/A   Scattered Clouds
1:53 AM 55.9 °F 39.9 °F 55% 29.95 in 10.0 mi WNW 12.7 mph 23.0 mph 0.00 in Rain Light Rain
2:53 AM 53.1 °F 39.9 °F 61% 29.97 in 10.0 mi WNW 11.5 mph 24.2 mph 0.00 in   Overcast
3:53 AM 51.1 °F 39.0 °F 63% 29.98 in 10.0 mi West 10.4 mph - N/A   Mostly Cloudy
4:53 AM 51.1 °F 35.1 °F 54% 29.98 in 10.0 mi WNW 9.2 mph 19.6 mph N/A   Overcast
5:53 AM 50.0 °F 34.0 °F 54% 30.00 in 10.0 mi WNW 13.8 mph 24.2 mph N/A   Overcast
6:53 AM 48.0 °F 33.1 °F 56% 30.01 in 10.0 mi WNW 5.8 mph - N/A   Partly Cloudy
7:53 AM 46.9 °F 34.0 °F 61% 30.01 in 10.0 mi WNW 5.8 mph - N/A   Partly Cloudy
8:53 AM 48.9 °F 35.1 °F 59% 30.02 in 10.0 mi West 5.8 mph - N/A   Overcast
9:53 AM 52.0 °F 36.0 °F 54% 30.04 in 10.0 mi WNW 10.4 mph - N/A   Overcast
10:53 AM 52.0 °F 34.0 °F 50% 30.05 in 10.0 mi West 9.2 mph - N/A   Overcast
11:53 AM 53.1 °F 34.0 °F 48% 30.05 in 10.0 mi West 10.4 mph 20.7 mph N/A   Overcast
12:53 PM 54.0 °F 34.0 °F 47% 30.05 in 10.0 mi West 12.7 mph 21.9 mph N/A   Overcast
1:53 PM 55.0 °F 34.0 °F 45% 30.01 in 10.0 mi West 11.5 mph - N/A   Overcast
2:53 PM 57.9 °F 35.1 °F 42% 29.98 in 10.0 mi WSW 15.0 mph 23.0 mph N/A   Clear
3:53 PM 60.1 °F 34.0 °F 38% 29.96 in 10.0 mi West 8.1 mph 17.3 mph N/A   Clear
4:53 PM 62.1 °F 33.1 °F 34% 29.93 in 10.0 mi WSW 13.8 mph 21.9 mph N/A   Clear
5:53 PM 61.0 °F 34.0 °F 36% 29.92 in 10.0 mi WSW 10.4 mph - N/A   Clear
6:53 PM 57.9 °F 34.0 °F 41% 29.93 in 10.0 mi West 9.2 mph - N/A   Partly Cloudy
7:53 PM 55.9 °F 34.0 °F 44% 29.95 in 10.0 mi WNW 9.2 mph - N/A   Clear
8:53 PM 53.1 °F 33.1 °F 47% 29.96 in 10.0 mi West 4.6 mph - N/A   Clear
9:53 PM 51.1 °F 35.1 °F 54% 29.96 in 10.0 mi WSW 4.6 mph - N/A   Clear
10:53 PM 48.9 °F 35.1 °F 59% 29.96 in 10.0 mi West 4.6 mph - N/A   Clear
11:53 PM 48.9 °F 33.1 °F 54% 29.95 in 10.0 mi WSW 10.4 mph 16.1 mph N/A   Clear